Location: Keewatin
(47.4004°N, 93.0827°W)
Time: 14:16:56
(UTC+00:00)

Envisat - Pass Details

Date: 09 December 2019
Orbit: 764 x 766 km, 98.1° (Epoch: 18 January)

Event Time Altitude Azimuth Distance (km) Brightness Sun altitude
Rises 11:57:04 0° 26° (NNE) 3,244 6.4 -17.8°
Reaches altitude 10° 11:59:56 10° 42° (NE) 2,312 5.8 -17.3°
Maximum altitude 12:03:46 21° 91° (E) 1,669 5.7 -16.7°
Drops below altitude 10° 12:07:33 10° 140° (SE) 2,298 6.3 -16.1°
Sets 12:10:23 0° 156° (SSE) 3,218 6.9 -15.6°
